Location: Handeloh
(53.2500°N, 9.8330°E)
Time: 18:08:36
(UTC+02:00)

OTV 5 (USA 277) - Visible Passes

Search period start: 17 October 2019 00:00
Search period end: 27 October 2019 00:00
Orbit: 310 x 324 km, 54.5° (Epoch: 08 October)

Date Brightness Start Highest point End Pass type
(mag) Time Alt. Az. Time Alt. Az. Time Alt. Az.
17 Oct ? 06:21:37 32° WSW 06:22:09 36° SSW 06:24:42 10° SE visible
18 Oct ? 05:05:07 11° ESE 05:05:07 11° ESE 05:05:16 10° ESE visible
18 Oct ? 06:36:01 19° SW 06:36:32 20° SW 06:38:38 10° SSE visible
19 Oct ? 05:19:36 11° SE 05:19:36 11° SE 05:19:42 10° SE visible
19 Oct ? 06:50:31 10° SW 06:50:47 10° SW 06:51:17 10° SW visible
